[[{"header":{"parameterUnit":"m.s-1","parameterCategory":2,"la1":30.2991,"la2":30.254,"lo1":-89.0895,"lo2":-89.0444,"dy":0.0017,"dx":0.0017,"nx":28,"ny":28,"refTime":"2024-09-03T03:00:00:Z","depth":"0","parameterNumber":2,"parameterNumberName":"U-component_of_CURRENTS"},"data":[0,0,0,0,0,0,0,0,0,0,0,0,0,0,0,0,0,0,0,0,0,0,0,0,0,0,0,0,0,0,0,0,0,0,0,0,0,0,0,0,0,0,0,0,0,0,0,0,0,0,0,0,0,0,0,0,0,0,-0.2314,-0.2314,0,-0.2301,-0.23,-0.23,-0.2271,-0.227,-0.227,-0.227,-0.2205,-0.2204,-0.2202,0,0,0,0,0,0,0,0,0,0,0,0,0,-0.2265,-0.2266,-0.2314,-0.2314,-0.2315,-0.2301,-0.23,-0.23,-0.2271,-0.227,-0.227,-0.227,-0.2206,-0.2204,-0.2202,0,0,0,0,0,0,0,0,0,0,0,0,0,-0.2269,-0.2267,-0.2314,-0.2302,-0.2301,-0.2301,-0.23,-0.2299,-0.2271,-0.227,-0.227,-0.227,-0.2206,-0.2204,-0.2202,-0.2194,0,0,-0.2195,-0.2194,0,0,0,0,0,0,0,0,-0.2269,-0.227,-0.2303,-0.2303,-0.2301,-0.2291,-0.2259,-0.2263,-0.2271,-0.2278,-0.227,-0.227,-0.2232,-0.2228,-0.2221,-0.2191,-0.2188,-0.2195,-0.2193,-0.2192,-0.2192,0,0,0,0,0,0,0,-0.2269,-0.227,-0.2305,-0.2304,-0.2303,-0.228,-0.228,-0.226,-0.2253,-0.2277,-0.2276,-0.2281,-0.2231,-0.2223,-0.2219,-0.2188,-0.2195,-0.2193,-0.2191,-0.2191,-0.2153,-0.2154,0,0,0,0,0,0,-0.2282,-0.2271,-0.2305,-0.2305,-0.2289,-0.2281,-0.2281,-0.2291,-0.2254,-0.225,-0.2281,-0.228,-0.2227,-0.2222,-0.2216,-0.2223,-0.2192,-0.219,-0.2189,-0.2153,-0.2153,-0.2154,0,0,0,0,0,0,-0.2281,-0.2285,-0.2306,-0.229,-0.2292,-0.2283,-0.2294,-0.2291,-0.2287,-0.2259,-0.2252,-0.2281,-0.2227,-0.222,-0.2207,-0.222,-0.2189,-0.2187,-0.2153,-0.2153,-0.2154,-0.2225,0,0,0,0,0,0,-0.228,-0.2285,-0.2292,-0.2291,-0.2293,-0.2321,-0.2295,-0.2291,-0.2292,-0.229,-0.2256,-0.225,-0.2226,-0.221,-0.2204,-0.2216,-0.2185,-0.2152,-0.2153,-0.2153,-0.2223,-0.2228,-0.2233,0,0,0,0,0,-0.2278,-0.2296,-0.2292,-0.2296,-0.2305,-0.2322,-0.2321,-0.231,-0.2293,-0.2302,-0.2274,-0.2251,-0.221,-0.2209,-0.2202,-0.2213,-0.2152,-0.2153,-0.2153,-0.222,-0.2227,-0.2233,0,0,0,0,0,0,-0.2277,-0.2296,-0.2291,-0.2313,-0.2323,-0.2319,-0.2325,-0.2315,-0.23,-0.2291,-0.2257,-0.2249,-0.2242,-0.2217,-0.2216,-0.2204,-0.2177,-0.2176,-0.223,-0.2236,-0.2241,-0.2248,-0.2183,0,0,0,0,0,-0.2282,-0.2298,-0.2312,-0.2328,-0.2336,-0.2329,-0.2332,-0.2327,-0.2317,-0.2309,-0.2287,-0.2258,-0.224,-0.223,-0.2209,-0.2203,-0.2188,-0.2205,-0.221,-0.2215,-0.2215,-0.2204,-0.2209,-0.2157,-0.2157,-0.2157,0,0,-0.2284,-0.2297,-0.2304,-0.2328,-0.233,-0.235,-0.2329,-0.2341,-0.2349,-0.2304,-0.2302,-0.2277,-0.2242,-0.2238,-0.2232,-0.2219,-0.2226,-0.2216,-0.2221,-0.2217,-0.2206,-0.2211,-0.2215,-0.2157,-0.2157,-0.2157,0,0,-0.2302,-0.2311,-0.2332,-0.2348,-0.2364,-0.2365,-0.2373,-0.2375,-0.2369,-0.2367,-0.2335,-0.2321,-0.2292,-0.2275,-0.226,-0.228,-0.2254,-0.2272,-0.2306,-0.2296,-0.2301,-0.2304,-0.2312,-0.2316,-0.2276,-0.2276,-0.2276,0,-0.2302,-0.2332,-0.2341,-0.2368,-0.2382,-0.2376,-0.2401,-0.2399,-0.2394,-0.2393,-0.2375,-0.2336,-0.2309,-0.2303,-0.231,-0.2294,-0.2288,-0.2288,-0.2305,-0.2308,-0.231,-0.2317,-0.232,-0.2279,-0.2279,-0.2279,-0.2278,0,-0.2338,-0.2362,-0.2378,-0.2409,-0.2427,-0.2448,-0.2457,-0.2464,-0.2451,-0.2445,-0.2436,-0.24,-0.2377,-0.2369,-0.2344,-0.2349,-0.2341,-0.2315,-0.2293,-0.232,-0.2325,-0.2327,-0.2285,-0.2283,-0.2282,-0.2281,0,0,-0.2328,-0.2391,-0.2393,-0.2415,-0.245,-0.2466,-0.249,-0.2509,-0.2519,-0.2504,-0.2509,-0.2478,-0.2455,-0.2435,-0.2405,-0.2395,-0.2414,-0.2367,-0.2364,-0.2382,-0.2408,-0.2428,-0.2432,-0.2392,-0.2393,-0.2393,-0.2413,0,-0.2347,-0.2404,-0.2431,-0.2475,-0.2504,-0.252,-0.2545,-0.2559,-0.2558,-0.2562,-0.2528,-0.2517,-0.2482,-0.2468,-0.2456,-0.2418,-0.2418,-0.2411,-0.2371,-0.237,-0.2391,-0.2435,-0.2456,-0.2477,-0.2414,-0.2415,-0.2415,0,-0.2362,-0.2402,-0.2452,-0.2511,-0.2526,-0.2548,-0.2582,-0.2604,-0.2616,-0.2615,-0.2604,-0.2578,-0.256,-0.252,-0.2487,-0.2485,-0.2455,-0.2427,-0.2427,-0.2419,-0.2393,-0.2434,-0.2483,-0.25,-0.2417,-0.2417,-0.2417,0,-0.2338,-0.2409,-0.2447,-0.2467,-0.2536,-0.2553,-0.2579,-0.2609,-0.2628,-0.2638,-0.2653,-0.2628,-0.2613,-0.2572,-0.2522,-0.2504,-0.2488,-0.2454,-0.2449,-0.2451,-0.2446,-0.2447,-0.2512,-0.2436,-0.2435,-0.2435,-0.2435,0,-0.2342,-0.2369,-0.2435,-0.2456,-0.2491,-0.2543,-0.2575,-0.26,-0.2638,-0.2668,-0.2667,-0.2679,-0.2623,-0.2607,-0.2551,-0.252,-0.2514,-0.2469,-0.2459,-0.2474,-0.2477,-0.2471,-0.2457,-0.2436,-0.2436,-0.2436,-0.2436,0,-0.2302,-0.2353,-0.239,-0.246,-0.2478,-0.2493,-0.2561,-0.2594,-0.264,-0.2678,-0.2684,-0.2713,-0.2703,-0.2661,-0.2603,-0.2568,-0.2512,-0.2511,-0.2545,-0.2539,-0.2549,-0.2537,-0.2512,-0.2459,-0.2515,-0.2516,-0.2517,0,-0.2287,-0.2303,-0.2364,-0.2385,-0.2411,-0.2452,-0.2491,-0.2563,-0.2609,-0.2696,-0.2717,-0.2738,-0.2756,-0.271,-0.2657,-0.2604,-0.2537,-0.2579,-0.2544,-0.2573,-0.2551,-0.2495,-0.2446,-0.2573,-0.2574,-0.2575,-0.2576,0,-0.2237,-0.225,-0.2282,-0.2321,-0.2359,-0.2407,-0.247,-0.2511,-0.2612,-0.2673,-0.2752,-0.2779,-0.2795,-0.2781,-0.2727,-0.2661,-0.2568,-0.2594,-0.2609,-0.2599,-0.2555,-0.2491,-0.2548,-0.2583,-0.2582,-0.2581,-0.2581,-0.2581,-0.2172,-0.2172,-0.2203,-0.2236,-0.2287,-0.2333,-0.2338,-0.2451,-0.2517,-0.2603,-0.2711,-0.2777,-0.2862,-0.2806,-0.2757,-0.2716,-0.2619,-0.2661,-0.2644,-0.2585,-0.2534,-0.2621,-0.2651,-0.265,-0.265,-0.265,-0.265,0,-0.2079,-0.2091,-0.212,-0.2145,-0.2162,-0.222,-0.23,-0.23,-0.2361,-0.2528,-0.2609,-0.2802,-0.2843,-0.2877,-0.2897,-0.282,-0.2701,-0.2729,-0.2665,-0.2607,-0.2693,-0.2699,-0.2759,-0.2759,-0.2759,-0.2759,-0.2759,-0.2759,-0.2024,-0.2007,-0.2026,-0.1998,-0.2024,-0.1992,-0.2011,-0.2052,-0.2144,-0.2278,-0.2452,-0.2615,-0.2715,-0.3042,-0.3027,-0.2903,-0.2779,-0.2716,-0.2639,-0.2744,-0.2736,-0.2729,-0.2734,-0.2801,-0.2801,-0.2532,-0.253,-0.2529]},{"header":{"parameterUnit":"m.s-1","parameterCategory":2,"la1":30.2991,"la2":30.254,"lo1":-89.0895,"lo2":-89.0444,"dy":0.0017,"dx":0.0017,"nx":28,"ny":28,"refTime":"2024-09-03T03:00:00:Z","depth":"0","parameterNumber":3,"parameterNumberName":"V-component_of_CURRENTS"},"data":[0,0,0,0,0,0,0,0,0,0,0,0,0,0,0,0,0,0,0,0,0,0,0,0,0,0,0,0,0,0,0,0,0,0,0,0,0,0,0,0,0,0,0,0,0,0,0,0,0,0,0,0,0,0,0,0,0,0,-0.0183,-0.0182,0,-0.0095,-0.0094,-0.0093,-0.0045,-0.0045,-0.0044,-0.0044,0.0039,0.0041,0.0043,0,0,0,0,0,0,0,0,0,0,0,0,0,-0.0257,-0.0256,-0.0183,-0.0182,-0.0181,-0.0095,-0.0094,-0.0093,-0.0045,-0.0045,-0.0044,-0.0044,0.0038,0.004,0.0043,0,0,0,0,0,0,0,0,0,0,0,0,0,-0.0204,-0.0256,-0.0183,-0.0146,-0.0141,-0.0095,-0.0094,-0.0093,-0.0045,-0.0045,-0.0044,-0.0044,0.0037,0.004,0.0043,0.0055,0,0,0.0052,0.0054,0,0,0,0,0,0,0,0,-0.0207,-0.0201,-0.0152,-0.0148,-0.0143,-0.008,-0.009,-0.0043,-0.0045,-0.0083,-0.0044,-0.0044,-0.0001,0.0005,0.002,0.0059,0.0063,0.0053,0.0054,0.0056,0.0056,0,0,0,0,0,0,0,-0.0211,-0.0204,-0.0149,-0.0151,-0.0145,-0.0115,-0.0108,-0.008,-0.0046,-0.0079,-0.0075,-0.0064,0.0001,0.0017,0.0022,0.0064,0.0052,0.0055,0.0057,0.0058,0.0142,0.0143,0,0,0,0,0,0,-0.0223,-0.0208,-0.0152,-0.0146,-0.0174,-0.0114,-0.0106,-0.0101,-0.0046,-0.0036,-0.0064,-0.0062,0.0011,0.0018,0.0025,0.0062,0.0056,0.0058,0.006,0.0142,0.0142,0.0143,0,0,0,0,0,0,-0.0225,-0.0219,-0.0155,-0.0174,-0.0164,-0.0114,-0.0108,-0.01,-0.0083,-0.0034,-0.0025,-0.0057,0.0012,0.0021,0.0057,0.0065,0.006,0.0063,0.0141,0.0142,0.0143,0.0123,0,0,0,0,0,0,-0.0227,-0.022,-0.0224,-0.0175,-0.0163,-0.0132,-0.0108,-0.0098,-0.0076,-0.0073,-0.0025,-0.0017,0.0013,0.0052,0.006,0.0069,0.0065,0.0141,0.0142,0.0142,0.0123,0.0123,0.0123,0,0,0,0,0,-0.023,-0.0238,-0.0225,-0.0218,-0.017,-0.0131,-0.0123,-0.0086,-0.0077,-0.0071,-0.0033,-0.0018,0.0063,0.0055,0.0064,0.0074,0.014,0.0141,0.0142,0.0123,0.0123,0.0123,0,0,0,0,0,0,-0.0275,-0.0232,-0.0217,-0.0212,-0.0176,-0.0123,-0.0117,-0.0091,-0.0057,-0.0056,-0.0011,0.0,0.0035,0.0055,0.0046,0.01,0.0103,0.0106,0.0086,0.0086,0.0085,0.007,0.0067,0,0,0,0,0,-0.0286,-0.0281,-0.0232,-0.0229,-0.0215,-0.0168,-0.0149,-0.0124,-0.0084,-0.0069,-0.0031,0.0007,0.0046,0.0065,0.0099,0.0127,0.0153,0.0139,0.0139,0.0138,0.0132,0.0183,0.0187,0.0146,0.0146,0.0146,0,0,-0.0304,-0.0279,-0.0277,-0.0238,-0.021,-0.0191,-0.0156,-0.0133,-0.0111,-0.0066,-0.0032,0.0007,0.0053,0.009,0.0107,0.0108,0.0165,0.0139,0.0139,0.0132,0.0184,0.0188,0.0192,0.0147,0.0147,0.0147,0,0,-0.0338,-0.0315,-0.0322,-0.029,-0.025,-0.0215,-0.021,-0.0157,-0.013,-0.0092,-0.0049,-0.0006,0.0046,0.0089,0.0116,0.0133,0.0162,0.0141,0.0128,0.0178,0.0182,0.0186,0.0228,0.0235,0.0141,0.014,0.014,0,-0.0363,-0.036,-0.0318,-0.0309,-0.0287,-0.0229,-0.0225,-0.0185,-0.0124,-0.0099,-0.0088,0.0009,0.0047,0.0106,0.0113,0.0132,0.0161,0.0125,0.0178,0.0182,0.0186,0.0228,0.0237,0.014,0.014,0.014,0.014,0,-0.0395,-0.0388,-0.0388,-0.0357,-0.0327,-0.0313,-0.025,-0.0217,-0.0179,-0.0133,-0.007,-0.0008,0.0049,0.0072,0.0098,0.0148,0.016,0.0172,0.0176,0.0189,0.0233,0.0242,0.0138,0.0139,0.0139,0.0139,0,0,-0.0458,-0.0422,-0.0419,-0.0415,-0.035,-0.0332,-0.0289,-0.0233,-0.0202,-0.0138,-0.0093,-0.0017,0.0021,0.0053,0.0101,0.0145,0.0201,0.0164,0.0167,0.02,0.0308,0.037,0.0386,0.0222,0.0224,0.0225,0.0329,0,-0.0497,-0.0511,-0.0464,-0.0459,-0.0461,-0.0382,-0.0345,-0.0282,-0.0217,-0.0157,-0.0076,-0.0023,0.0015,0.0041,0.0096,0.018,0.0223,0.0171,0.0295,0.0298,0.0348,0.0399,0.0483,0.0588,0.0338,0.034,0.0341,0,-0.054,-0.0543,-0.056,-0.0518,-0.0508,-0.0487,-0.0415,-0.0373,-0.0264,-0.0211,-0.0131,-0.0063,0.0027,0.0044,0.0192,0.0157,0.0223,0.0282,0.0288,0.0357,0.0378,0.0535,0.0614,0.0785,0.0355,0.0354,0.0353,0,-0.0623,-0.0603,-0.0625,-0.0609,-0.0553,-0.0536,-0.0499,-0.04,-0.0361,-0.0249,-0.0204,-0.0083,-0.0017,0.0083,0.0221,0.0204,0.038,0.0374,0.0491,0.0496,0.0598,0.0609,0.0853,0.0461,0.0461,0.0461,0.0461,0,-0.0684,-0.0694,-0.0669,-0.0678,-0.0688,-0.0616,-0.0595,-0.0528,-0.0433,-0.0378,-0.0249,-0.017,-0.0006,0.0124,0.0224,0.0406,0.039,0.0503,0.0536,0.0594,0.0603,0.0779,0.0832,0.0465,0.0464,0.0463,0.0463,0,-0.0767,-0.0751,-0.0774,-0.0741,-0.0731,-0.0742,-0.0678,-0.0657,-0.0546,-0.0467,-0.0436,-0.023,-0.0036,0.0135,0.0325,0.0425,0.0682,0.0629,0.0687,0.0725,0.0984,0.103,0.1266,0.1315,0.0776,0.0779,0.0781,0,-0.0811,-0.0837,-0.084,-0.0866,-0.0855,-0.0851,-0.0844,-0.0739,-0.0696,-0.0494,-0.0457,-0.0239,-0.0051,0.0276,0.0504,0.0723,0.0801,0.0893,0.0875,0.1034,0.1109,0.1127,0.1149,0.1003,0.1006,0.1009,0.1012,0,-0.0891,-0.0894,-0.0918,-0.098,-0.0995,-0.0995,-0.0962,-0.094,-0.0788,-0.0676,-0.0472,-0.0302,0.0086,0.0443,0.0746,0.0853,0.1033,0.0958,0.1124,0.1316,0.1352,0.1402,0.0884,0.1038,0.1035,0.1033,0.1032,0.1031,-0.0947,-0.0995,-0.1037,-0.1092,-0.1117,-0.1121,-0.1116,-0.1035,-0.0939,-0.0721,-0.0507,-0.0185,0.039,0.0869,0.0999,0.136,0.1256,0.1452,0.1495,0.1498,0.1557,0.1092,0.1279,0.1277,0.1276,0.1275,0.1275,0,-0.1018,-0.1072,-0.1142,-0.1198,-0.1247,-0.1223,-0.1179,-0.1128,-0.1008,-0.0726,-0.0471,0.0231,0.0758,0.1204,0.1768,0.1926,0.1889,0.1974,0.2037,0.2027,0.1646,0.167,0.1949,0.1949,0.1949,0.1949,0.1948,0.1948,-0.1058,-0.1152,-0.1195,-0.1299,-0.1334,-0.1353,-0.133,-0.12,-0.0989,-0.0523,-0.0098,0.026,0.1,0.2022,0.2492,0.2456,0.2545,0.2529,0.2533,0.2311,0.2265,0.2222,0.2261,0.2659,0.266,0.2907,0.291,0.2912]}],[{"header":{"parameterUnit":"m.s-1","parameterCategory":2,"la1":30.2991,"la2":30.254,"lo1":-89.0895,"lo2":-89.0444,"dy":0.0017,"dx":0.0017,"nx":28,"ny":28,"refTime":"2024-09-03T03:00:00:Z","depth":"2","parameterNumber":2,"parameterNumberName":"U-component_of_CURRENTS"},"data":[0,0,0,0,0,0,0,0,0,0,0,0,0,0,0,0,0,0,0,0,0,0,0,0,0,0,0,0,0,0,0,0,0,0,0,0,0,0,0,0,0,0,0,0,0,0,0,0,0,0,0,0,0,0,0,0,0,0,-0.2245,-0.2245,0,-0.2232,-0.2231,-0.2231,-0.2204,-0.2204,-0.2203,-0.2203,-0.214,-0.2139,-0.2137,0,0,0,0,0,0,0,0,0,0,0,0,0,-0.2197,-0.2198,-0.2245,-0.2245,-0.2246,-0.2232,-0.2231,-0.2231,-0.2204,-0.2204,-0.2203,-0.2203,-0.214,-0.2139,-0.2137,0,0,0,0,0,0,0,0,0,0,0,0,0,-0.2201,-0.2199,-0.2245,-0.2233,-0.2233,-0.2232,-0.2231,-0.2231,-0.2204,-0.2204,-0.2203,-0.2203,-0.2141,-0.2139,-0.2137,-0.2128,0,0,-0.213,-0.2129,0,0,0,0,0,0,0,0,-0.2201,-0.2202,-0.2235,-0.2234,-0.2233,-0.2223,-0.2192,-0.2195,-0.2204,-0.221,-0.2203,-0.2203,-0.2166,-0.2162,-0.2155,-0.2125,-0.2122,-0.2129,-0.2128,-0.2127,-0.2126,0,0,0,0,0,0,0,-0.2201,-0.2202,-0.2236,-0.2235,-0.2234,-0.2212,-0.2212,-0.2192,-0.2186,-0.221,-0.2209,-0.2214,-0.2164,-0.2157,-0.2153,-0.2121,-0.213,-0.2127,-0.2126,-0.2125,-0.2088,-0.2089,0,0,0,0,0,0,-0.2214,-0.2203,-0.2236,-0.2236,-0.2221,-0.2214,-0.2214,-0.2223,-0.2187,-0.2183,-0.2214,-0.2213,-0.2161,-0.2156,-0.215,-0.2158,-0.2127,-0.2125,-0.2124,-0.2088,-0.2088,-0.2089,0,0,0,0,0,0,-0.2213,-0.2217,-0.2237,-0.2222,-0.2223,-0.2216,-0.2226,-0.2223,-0.222,-0.2192,-0.2185,-0.2215,-0.216,-0.2154,-0.2141,-0.2155,-0.2124,-0.2122,-0.2087,-0.2088,-0.2089,-0.2161,0,0,0,0,0,0,-0.2211,-0.2217,-0.2224,-0.2223,-0.2225,-0.2252,-0.2226,-0.2223,-0.2225,-0.2223,-0.219,-0.2184,-0.216,-0.2145,-0.2139,-0.2151,-0.212,-0.2087,-0.2088,-0.2088,-0.2158,-0.2164,-0.2169,0,0,0,0,0,-0.221,-0.2228,-0.2224,-0.2228,-0.2236,-0.2253,-0.2252,-0.2242,-0.2226,-0.2235,-0.2208,-0.2185,-0.2145,-0.2144,-0.2136,-0.2148,-0.2087,-0.2087,-0.2088,-0.2155,-0.2162,-0.2168,0,0,0,0,0,0,-0.221,-0.2227,-0.2223,-0.2245,-0.2255,-0.2251,-0.2257,-0.2247,-0.2233,-0.2225,-0.2191,-0.2183,-0.2177,-0.2151,-0.215,-0.2138,-0.2111,-0.2111,-0.2165,-0.2171,-0.2176,-0.2183,-0.2118,0,0,0,0,0,-0.2215,-0.223,-0.2244,-0.2259,-0.2268,-0.2261,-0.2264,-0.2259,-0.225,-0.2243,-0.222,-0.2193,-0.2174,-0.2165,-0.2143,-0.2138,-0.2123,-0.214,-0.2145,-0.215,-0.215,-0.2139,-0.2144,-0.2092,-0.2092,-0.2092,0,0,-0.2217,-0.2229,-0.2236,-0.226,-0.2262,-0.2282,-0.2261,-0.2274,-0.2282,-0.2237,-0.2235,-0.2211,-0.2176,-0.2172,-0.2167,-0.2154,-0.2161,-0.2151,-0.2156,-0.2153,-0.2141,-0.2146,-0.215,-0.2092,-0.2092,-0.2092,0,0,-0.2235,-0.2244,-0.2265,-0.228,-0.2296,-0.2297,-0.2305,-0.2307,-0.2302,-0.2301,-0.2269,-0.2255,-0.2227,-0.2209,-0.2194,-0.2215,-0.2189,-0.2208,-0.2241,-0.2232,-0.2236,-0.224,-0.2248,-0.2251,-0.2211,-0.2211,-0.2211,0,-0.2235,-0.2264,-0.2273,-0.23,-0.2314,-0.2308,-0.2333,-0.2331,-0.2327,-0.2325,-0.2309,-0.2271,-0.2244,-0.2237,-0.2245,-0.2229,-0.2223,-0.2223,-0.224,-0.2243,-0.2246,-0.2252,-0.2256,-0.2215,-0.2214,-0.2214,-0.2214,0,-0.227,-0.2294,-0.231,-0.2341,-0.2358,-0.2379,-0.2388,-0.2396,-0.2384,-0.2378,-0.237,-0.2334,-0.2311,-0.2303,-0.2279,-0.2284,-0.2277,-0.2251,-0.2228,-0.2256,-0.2261,-0.2263,-0.222,-0.2219,-0.2218,-0.2217,0,0,-0.2261,-0.2322,-0.2324,-0.2347,-0.2381,-0.2397,-0.2421,-0.2439,-0.245,-0.2436,-0.2442,-0.2411,-0.2389,-0.237,-0.2339,-0.233,-0.2349,-0.2302,-0.23,-0.2318,-0.2344,-0.2363,-0.2366,-0.2328,-0.2328,-0.2328,-0.2349,0,-0.228,-0.2336,-0.2362,-0.2406,-0.2434,-0.245,-0.2475,-0.2489,-0.2488,-0.2494,-0.246,-0.2449,-0.2415,-0.2403,-0.2391,-0.2353,-0.2354,-0.2347,-0.2306,-0.2305,-0.2325,-0.2369,-0.2133,-0.2132,-0.235,-0.2351,-0.2351,0,-0.2295,-0.2334,-0.2383,-0.2441,-0.2455,-0.2478,-0.2512,-0.2533,-0.2546,-0.2546,-0.2535,-0.251,-0.2494,-0.2454,-0.2422,-0.242,-0.239,-0.2363,-0.2362,-0.2353,-0.2327,-0.2134,-0.2127,-0.2354,-0.2353,-0.2353,-0.2353,0,-0.2271,-0.2341,-0.2378,-0.2399,-0.2466,-0.2484,-0.2509,-0.2539,-0.2558,-0.2569,-0.2585,-0.2561,-0.2546,-0.2506,-0.2457,-0.244,-0.2423,-0.2389,-0.2384,-0.2385,-0.2162,-0.2144,-0.2371,-0.2371,-0.2371,-0.2371,-0.2371,0,-0.2276,-0.2303,-0.2367,-0.2388,-0.2423,-0.2474,-0.2507,-0.2532,-0.257,-0.26,-0.26,-0.2611,-0.2557,-0.2541,-0.2486,-0.2455,-0.2449,-0.2403,-0.2394,-0.2184,-0.2169,-0.2332,-0.2327,-0.2372,-0.2372,-0.2372,-0.2372,0,-0.2237,-0.2287,-0.2324,-0.2393,-0.2411,-0.2426,-0.2494,-0.2527,-0.2573,-0.2611,-0.2617,-0.2646,-0.2636,-0.2595,-0.2537,-0.2502,-0.2458,-0.2445,-0.2222,-0.2187,-0.2421,-0.2419,-0.2447,-0.2448,-0.2449,-0.2449,-0.245,0,-0.2222,-0.2238,-0.2298,-0.2319,-0.2346,-0.2387,-0.2426,-0.2497,-0.2541,-0.2629,-0.2648,-0.267,-0.2675,-0.263,-0.2512,-0.244,-0.2487,-0.2244,-0.2173,-0.2442,-0.2429,-0.2426,-0.2424,-0.19,-0.1896,-0.1892,-0.189,0,-0.2173,-0.2186,-0.2218,-0.2257,-0.2295,-0.2342,-0.2404,-0.2444,-0.2544,-0.259,-0.2668,-0.2683,-0.2641,-0.2458,-0.2378,-0.2295,-0.2238,-0.2183,-0.2483,-0.1948,-0.1935,-0.1921,-0.1933,-0.186,-0.1863,-0.1865,-0.1867,-0.1868,-0.2109,-0.2109,-0.214,-0.2174,-0.2224,-0.2268,-0.2272,-0.232,-0.2363,-0.2337,-0.2526,-0.243,-0.2416,-0.2142,-0.207,-0.1973,-0.211,-0.2004,-0.2008,-0.2017,-0.1981,-0.1974,-0.1899,-0.1902,-0.1905,-0.1907,-0.1909,0,-0.1994,-0.203,-0.2058,-0.2083,-0.2068,-0.2157,-0.2234,-0.2133,-0.2091,-0.2095,-0.2089,-0.1881,-0.1814,-0.18,-0.1604,-0.1633,-0.1544,-0.1589,-0.1443,-0.1473,-0.15,-0.1432,-0.1207,-0.1206,-0.1204,-0.1203,0,0,-0.1934,-0.1906,-0.1923,-0.1878,-0.1925,-0.1824,-0.1839,-0.1699,-0.1618,-0.1432,-0.1374,-0.1521,-0.1672,-0.1382,-0.1369,-0.1254,-0.1329,-0.1191,-0.174,-0.1588,-0.1612,-0.1722,-0.1652,0,0,0,0,0]},{"header":{"parameterUnit":"m.s-1","parameterCategory":2,"la1":30.2991,"la2":30.254,"lo1":-89.0895,"lo2":-89.0444,"dy":0.0017,"dx":0.0017,"nx":28,"ny":28,"refTime":"2024-09-03T03:00:00:Z","depth":"2","parameterNumber":3,"parameterNumberName":"V-component_of_CURRENTS"},"data":[0,0,0,0,0,0,0,0,0,0,0,0,0,0,0,0,0,0,0,0,0,0,0,0,0,0,0,0,0,0,0,0,0,0,0,0,0,0,0,0,0,0,0,0,0,0,0,0,0,0,0,0,0,0,0,0,0,0,-0.0197,-0.0196,0,-0.0111,-0.011,-0.0109,-0.0061,-0.006,-0.006,-0.006,0.0023,0.0024,0.0026,0,0,0,0,0,0,0,0,0,0,0,0,0,-0.0271,-0.027,-0.0197,-0.0196,-0.0195,-0.0111,-0.011,-0.0108,-0.0061,-0.006,-0.006,-0.006,0.0022,0.0024,0.0027,0,0,0,0,0,0,0,0,0,0,0,0,0,-0.0218,-0.027,-0.0198,-0.016,-0.0156,-0.0111,-0.011,-0.0108,-0.0061,-0.006,-0.006,-0.006,0.0021,0.0024,0.0027,0.0039,0,0,0.0036,0.0037,0,0,0,0,0,0,0,0,-0.0221,-0.0216,-0.0167,-0.0163,-0.0158,-0.0095,-0.0105,-0.0059,-0.0061,-0.0098,-0.006,-0.006,-0.0017,-0.0011,0.0004,0.0043,0.0046,0.0036,0.0038,0.0039,0.004,0,0,0,0,0,0,0,-0.0225,-0.0219,-0.0164,-0.0166,-0.016,-0.013,-0.0123,-0.0096,-0.0061,-0.0095,-0.0091,-0.008,-0.0015,0.0001,0.0006,0.0047,0.0036,0.0039,0.0041,0.0042,0.0125,0.0126,0,0,0,0,0,0,-0.0237,-0.0222,-0.0167,-0.0161,-0.0188,-0.013,-0.0121,-0.0117,-0.0061,-0.0052,-0.008,-0.0078,-0.0005,0.0002,0.0009,0.0046,0.0039,0.0042,0.0044,0.0125,0.0126,0.0126,0,0,0,0,0,0,-0.0239,-0.0233,-0.017,-0.0189,-0.0178,-0.0129,-0.0124,-0.0115,-0.0099,-0.005,-0.0041,-0.0073,-0.0004,0.0005,0.004,0.0048,0.0044,0.0046,0.0125,0.0125,0.0126,0.0106,0,0,0,0,0,0,-0.0241,-0.0234,-0.0238,-0.019,-0.0178,-0.0147,-0.0123,-0.0113,-0.0092,-0.0088,-0.0041,-0.0032,-0.0003,0.0036,0.0043,0.0052,0.0049,0.0124,0.0125,0.0126,0.0106,0.0106,0.0106,0,0,0,0,0,-0.0244,-0.0252,-0.0239,-0.0232,-0.0184,-0.0147,-0.0138,-0.0102,-0.0092,-0.0086,-0.0049,-0.0034,0.0046,0.0039,0.0047,0.0057,0.0124,0.0125,0.0126,0.0106,0.0106,0.0106,0,0,0,0,0,0,-0.0288,-0.0246,-0.0231,-0.0227,-0.0191,-0.0138,-0.0132,-0.0106,-0.0072,-0.0071,-0.0027,-0.0016,0.0019,0.0039,0.003,0.0084,0.0087,0.0089,0.0069,0.0069,0.0069,0.0054,0.0051,0,0,0,0,0,-0.03,-0.0294,-0.0246,-0.0243,-0.0229,-0.0182,-0.0164,-0.0139,-0.01,-0.0085,-0.0047,-0.0009,0.003,0.0049,0.0083,0.011,0.0136,0.0122,0.0122,0.0121,0.0115,0.0166,0.017,0.0129,0.0129,0.0129,0,0,-0.0317,-0.0293,-0.0291,-0.0252,-0.0225,-0.0205,-0.0171,-0.0148,-0.0127,-0.0082,-0.0048,-0.0009,0.0037,0.0074,0.009,0.0091,0.0148,0.0123,0.0122,0.0116,0.0167,0.0171,0.0175,0.013,0.013,0.013,0,0,-0.035,-0.0327,-0.0335,-0.0304,-0.0263,-0.0229,-0.0224,-0.0172,-0.0145,-0.0107,-0.0065,-0.0021,0.0029,0.0073,0.0099,0.0116,0.0146,0.0124,0.0112,0.0162,0.0165,0.0169,0.021,0.0218,0.0124,0.0124,0.0124,0,-0.0375,-0.0372,-0.0331,-0.0322,-0.03,-0.0243,-0.0239,-0.0199,-0.0139,-0.0114,-0.0103,-0.0006,0.0031,0.0089,0.0097,0.0116,0.0144,0.0109,0.0161,0.0165,0.0169,0.0211,0.0219,0.0123,0.0123,0.0123,0.0123,0,-0.0407,-0.04,-0.04,-0.0369,-0.034,-0.0326,-0.0264,-0.0232,-0.0193,-0.0148,-0.0085,-0.0024,0.0033,0.0056,0.0081,0.0132,0.0144,0.0155,0.0159,0.0172,0.0215,0.0224,0.0122,0.0122,0.0122,0.0122,0,0,-0.0469,-0.0434,-0.0432,-0.0427,-0.0363,-0.0346,-0.0303,-0.0247,-0.0217,-0.0152,-0.0108,-0.0033,0.0006,0.0038,0.0085,0.0128,0.0185,0.0147,0.015,0.0184,0.0291,0.0351,0.0367,0.0206,0.0207,0.0208,0.0311,0,-0.0508,-0.0522,-0.0476,-0.0471,-0.0473,-0.0394,-0.0358,-0.0296,-0.0232,-0.0171,-0.0091,-0.0038,-0.0,0.0026,0.0081,0.0163,0.0207,0.0155,0.0277,0.0281,0.0329,0.0379,0.0269,0.0357,0.032,0.0322,0.0323,0,-0.0551,-0.0554,-0.0571,-0.0529,-0.052,-0.0499,-0.0427,-0.0385,-0.0277,-0.0225,-0.0145,-0.0078,0.0012,0.0029,0.0176,0.0141,0.0207,0.0266,0.0271,0.0338,0.0358,0.0339,0.0375,0.0338,0.0337,0.0336,0.0335,0,-0.0633,-0.0613,-0.0635,-0.062,-0.0564,-0.0547,-0.051,-0.0412,-0.0373,-0.0263,-0.0218,-0.0098,-0.0032,0.0067,0.0204,0.0187,0.0362,0.0356,0.0471,0.0476,0.0412,0.041,0.0443,0.0443,0.0443,0.0443,0.0442,0,-0.0694,-0.0703,-0.0679,-0.0688,-0.0697,-0.0626,-0.0606,-0.0539,-0.0445,-0.039,-0.0262,-0.0184,-0.002,0.0108,0.0207,0.0387,0.0372,0.0482,0.0515,0.0404,0.04,0.0402,0.0396,0.0447,0.0446,0.0445,0.0444,0,-0.0775,-0.076,-0.0782,-0.075,-0.074,-0.075,-0.0688,-0.0667,-0.0558,-0.0479,-0.0449,-0.0245,-0.0052,0.0117,0.0307,0.0405,0.0551,0.0607,0.0471,0.0488,0.0623,0.0614,0.0746,0.0749,0.0752,0.0754,0.0756,0,-0.0819,-0.0844,-0.0848,-0.0874,-0.0863,-0.0859,-0.0853,-0.0748,-0.0706,-0.0507,-0.0471,-0.0255,-0.0076,0.0248,0.0425,0.0629,0.0639,0.0665,0.0622,0.064,0.0658,0.0645,0.0634,0.0521,0.0521,0.0521,0.0521,0,-0.0898,-0.0901,-0.0925,-0.0987,-0.1002,-0.1002,-0.097,-0.0948,-0.0798,-0.0693,-0.0492,-0.0331,0.0006,0.0236,0.0516,0.0607,0.0628,0.0673,0.0732,0.0476,0.0442,0.0455,0.0448,0.052,0.052,0.052,0.052,0.052,-0.0953,-0.1002,-0.1043,-0.1098,-0.1123,-0.1128,-0.1123,-0.1054,-0.0966,-0.079,-0.0582,-0.034,-0.0049,0.0314,0.052,0.0673,0.0682,0.0694,0.0689,0.0684,0.0655,0.0629,0.0735,0.0736,0.0738,0.0739,0.0739,0,-0.102,-0.1077,-0.1147,-0.1203,-0.1247,-0.1229,-0.1187,-0.115,-0.105,-0.0882,-0.0682,-0.0365,-0.0069,0.0224,0.0458,0.0658,0.0593,0.0688,0.0553,0.0552,0.0552,0.0511,0.0556,0.0556,0.0557,0.0558,0,0,-0.1059,-0.115,-0.1193,-0.1294,-0.1333,-0.1351,-0.1328,-0.1245,-0.1125,-0.0955,-0.0788,-0.0526,-0.0116,0.0037,0.0282,0.0413,0.0417,0.0406,0.0519,0.0323,0.0321,0.0513,0.0446,0,0,0,0,0]}],[{"header":{"parameterUnit":"m.s-1","parameterCategory":2,"la1":30.2991,"la2":30.254,"lo1":-89.0895,"lo2":-89.0444,"dy":0.0017,"dx":0.0017,"nx":28,"ny":28,"refTime":"2024-09-03T03:00:00:Z","depth":"4","parameterNumber":2,"parameterNumberName":"U-component_of_CURRENTS"},"data":[0,0,0,0,0,0,0,0,0,0,0,0,0,0,0,0,0,0,0,0,0,0,0,0,0,0,0,0,0,0,0,0,0,0,0,0,0,0,0,0,0,0,0,0,0,0,0,0,0,0,0,0,0,0,0,0,0,0,-0.121,-0.1211,0,-0.1245,-0.1246,-0.1246,-0.1269,-0.127,-0.127,-0.127,-0.1279,-0.1279,-0.1279,0,0,0,0,0,0,0,0,0,0,0,0,0,-0.1138,-0.1139,-0.121,-0.1211,-0.1211,-0.1245,-0.1246,-0.1246,-0.1269,-0.127,-0.127,-0.127,-0.128,-0.1279,-0.1279,0,0,0,0,0,0,0,0,0,0,0,0,0,-0.1169,-0.114,-0.121,-0.1228,-0.123,-0.1245,-0.1246,-0.1246,-0.1269,-0.127,-0.127,-0.127,-0.128,-0.1279,-0.1279,-0.1269,0,0,-0.1279,-0.1279,0,0,0,0,0,0,0,0,-0.1168,-0.1172,-0.1225,-0.1227,-0.123,-0.1255,-0.1224,-0.1253,-0.1269,-0.1253,-0.127,-0.1271,-0.127,-0.127,-0.1274,-0.127,-0.127,-0.1279,-0.1279,-0.1279,-0.1279,0,0,0,0,0,0,0,-0.1165,-0.117,-0.1222,-0.1226,-0.1228,-0.1226,-0.1231,-0.1229,-0.1256,-0.1254,-0.1256,-0.1263,-0.1271,-0.1274,-0.1274,-0.127,-0.1279,-0.1279,-0.1279,-0.1279,-0.1318,-0.1319,0,0,0,0,0,0,-0.1166,-0.1169,-0.1221,-0.1224,-0.1201,-0.1228,-0.1233,-0.1245,-0.1257,-0.126,-0.1262,-0.1264,-0.1274,-0.1274,-0.1275,-0.1332,-0.1279,-0.1279,-0.1279,-0.1317,-0.1318,-0.1319,0,0,0,0,0,0,-0.1164,-0.117,-0.122,-0.1198,-0.1204,-0.1229,-0.1241,-0.1245,-0.1272,-0.1264,-0.1266,-0.1288,-0.1274,-0.1275,-0.1297,-0.133,-0.1279,-0.1279,-0.1315,-0.1317,-0.1319,-0.1402,0,0,0,0,0,0,-0.1162,-0.117,-0.1187,-0.1198,-0.1206,-0.125,-0.1241,-0.1246,-0.1275,-0.1278,-0.1286,-0.1286,-0.1275,-0.1298,-0.1297,-0.1329,-0.1279,-0.1314,-0.1316,-0.1318,-0.1398,-0.1407,-0.1414,0,0,0,0,0,-0.1159,-0.1181,-0.1188,-0.1195,-0.1226,-0.1251,-0.1255,-0.1272,-0.1276,-0.1296,-0.1302,-0.1287,-0.131,-0.1299,-0.1298,-0.133,-0.1313,-0.1316,-0.1318,-0.1395,-0.1405,-0.1414,0,0,0,0,0,0,-0.116,-0.1186,-0.1194,-0.1223,-0.1245,-0.1256,-0.1278,-0.1286,-0.1306,-0.1313,-0.1301,-0.1302,-0.1332,-0.1318,-0.1305,-0.1346,-0.1309,-0.1311,-0.1367,-0.1377,-0.1384,-0.1383,-0.1279,0,0,0,0,0,-0.1168,-0.1191,-0.1213,-0.1238,-0.1253,-0.1269,-0.1284,-0.1297,-0.1311,-0.1322,-0.1329,-0.1333,-0.1337,-0.1348,-0.1346,-0.1371,-0.1351,-0.139,-0.1398,-0.1404,-0.1403,-0.14,-0.1407,-0.1327,-0.1327,-0.1327,0,0,-0.1175,-0.1192,-0.1206,-0.124,-0.1258,-0.1288,-0.128,-0.1314,-0.1342,-0.1318,-0.1364,-0.1361,-0.1348,-0.1377,-0.1389,-0.1374,-0.142,-0.1408,-0.1414,-0.1408,-0.1403,-0.1411,-0.1417,-0.1329,-0.1328,-0.1328,0,0,-0.1194,-0.1219,-0.1243,-0.1268,-0.1303,-0.1316,-0.1332,-0.1361,-0.1382,-0.1418,-0.1407,-0.1424,-0.1438,-0.1437,-0.1435,-0.1483,-0.1458,-0.1489,-0.1534,-0.1533,-0.1539,-0.1544,-0.1545,-0.155,-0.1497,-0.1498,-0.1498,0,-0.1202,-0.1237,-0.1255,-0.1287,-0.1314,-0.1333,-0.137,-0.1392,-0.1426,-0.1446,-0.1445,-0.147,-0.1464,-0.1488,-0.1508,-0.1502,-0.1497,-0.1503,-0.1543,-0.1548,-0.1552,-0.1551,-0.1555,-0.1502,-0.1501,-0.1501,-0.1501,0,-0.1231,-0.1272,-0.1291,-0.1338,-0.137,-0.1407,-0.144,-0.1477,-0.1502,-0.1519,-0.1558,-0.1552,-0.1565,-0.1571,-0.1557,-0.1588,-0.1575,-0.1551,-0.1521,-0.1565,-0.1561,-0.1564,-0.1508,-0.1507,-0.1505,-0.1504,0,0,-0.1212,-0.1296,-0.1304,-0.1343,-0.1404,-0.1432,-0.1488,-0.1537,-0.1574,-0.1606,-0.1646,-0.1659,-0.1657,-0.1653,-0.1641,-0.1644,-0.1676,-0.162,-0.1618,-0.1623,-0.168,-0.1591,-0.1585,-0.1665,-0.1665,-0.1666,-0.1671,0,-0.123,-0.1299,-0.1339,-0.1413,-0.1453,-0.1501,-0.1551,-0.16,-0.1634,-0.1678,-0.1681,-0.1709,-0.1687,-0.17,-0.1703,-0.1677,-0.1684,-0.1676,-0.1633,-0.1632,-0.1549,-0.1585,-0.1668,-0.1673,-0.1674,-0.1674,-0.1674,0,-0.1235,-0.1287,-0.1361,-0.1459,-0.1482,-0.153,-0.1613,-0.1661,-0.1719,-0.1747,-0.1775,-0.1776,-0.1792,-0.1762,-0.1751,-0.175,-0.1725,-0.1702,-0.1702,-0.1586,-0.1546,-0.1614,-0.1679,-0.1678,-0.1678,-0.1678,-0.1678,0,-0.1195,-0.1299,-0.1361,-0.1395,-0.1504,-0.1551,-0.1608,-0.1679,-0.1722,-0.1785,-0.1818,-0.1835,-0.1845,-0.1821,-0.1782,-0.1773,-0.176,-0.1735,-0.1633,-0.1627,-0.1669,-0.1663,-0.1726,-0.1726,-0.1726,-0.1726,-0.1726,0,-0.1181,-0.1235,-0.1353,-0.1387,-0.1465,-0.1546,-0.1623,-0.1679,-0.1757,-0.1799,-0.1845,-0.1861,-0.1861,-0.1852,-0.1808,-0.1728,-0.178,-0.1643,-0.1621,-0.1706,-0.1704,-0.1672,-0.1665,-0.1727,-0.1726,-0.1726,-0.1726,0,-0.1117,-0.1199,-0.1276,-0.1404,-0.1447,-0.1497,-0.1623,-0.1668,-0.1757,-0.1811,-0.1833,-0.189,-0.1872,-0.186,-0.182,-0.1751,-0.1688,-0.1648,-0.1755,-0.1739,-0.1554,-0.1552,-0.1532,-0.1529,-0.1526,-0.1524,-0.1522,0,-0.1086,-0.1121,-0.1262,-0.1309,-0.137,-0.1463,-0.1522,-0.1642,-0.1686,-0.1803,-0.1811,-0.1848,-0.1862,-0.1739,-0.1737,-0.1661,-0.1631,-0.1603,-0.1563,-0.1552,-0.1533,-0.1536,-0.1537,-0.1518,-0.1517,-0.1516,-0.1516,0,-0.102,-0.1077,-0.1139,-0.1229,-0.1306,-0.1383,-0.1477,-0.1503,-0.163,-0.1737,-0.174,-0.1724,-0.1711,-0.1665,-0.1627,-0.1566,-0.1621,-0.1574,-0.1579,-0.1541,-0.1535,-0.1519,-0.1524,-0.1506,-0.1508,-0.1509,-0.1509,0,-0.0959,-0.0978,-0.1058,-0.1126,-0.1219,-0.1261,-0.1335,-0.1396,-0.1458,-0.1603,-0.1596,-0.1634,-0.1698,-0.1616,-0.1573,-0.1518,-0.1481,-0.1422,-0.1434,-0.1444,-0.1408,-0.1387,-0.1296,0,0,0,0,0,-0.0888,-0.0893,-0.095,-0.1013,-0.1099,-0.1141,-0.1282,-0.1361,-0.1497,-0.1465,-0.153,-0.1511,-0.1467,-0.1485,-0.14,-0.1507,-0.1472,-0.1403,-0.1408,-0.1455,-0.1466,-0.1429,0,0,0,0,0,0,-0.0838,-0.0877,-0.0901,-0.0896,-0.091,-0.0981,-0.106,-0.1162,-0.1165,-0.131,-0.129,-0.1402,-0.137,-0.1466,-0.1352,-0.1357,-0.133,-0.144,-0.1436,-0.1449,-0.1459,-0.1467,-0.1433,0,0,0,0,0]},{"header":{"parameterUnit":"m.s-1","parameterCategory":2,"la1":30.2991,"la2":30.254,"lo1":-89.0895,"lo2":-89.0444,"dy":0.0017,"dx":0.0017,"nx":28,"ny":28,"refTime":"2024-09-03T03:00:00:Z","depth":"4","parameterNumber":3,"parameterNumberName":"V-component_of_CURRENTS"},"data":[0,0,0,0,0,0,0,0,0,0,0,0,0,0,0,0,0,0,0,0,0,0,0,0,0,0,0,0,0,0,0,0,0,0,0,0,0,0,0,0,0,0,0,0,0,0,0,0,0,0,0,0,0,0,0,0,0,0,-0.0253,-0.0253,0,-0.0201,-0.02,-0.02,-0.0173,-0.0173,-0.0172,-0.0172,-0.0109,-0.0108,-0.0106,0,0,0,0,0,0,0,0,0,0,0,0,0,-0.0296,-0.0296,-0.0253,-0.0253,-0.0252,-0.0201,-0.02,-0.02,-0.0173,-0.0173,-0.0172,-0.0172,-0.011,-0.0108,-0.0106,0,0,0,0,0,0,0,0,0,0,0,0,0,-0.0265,-0.0296,-0.0254,-0.0232,-0.023,-0.0201,-0.02,-0.0199,-0.0173,-0.0173,-0.0172,-0.0172,-0.011,-0.0108,-0.0106,-0.0093,0,0,-0.0098,-0.0097,0,0,0,0,0,0,0,0,-0.0267,-0.0263,-0.0236,-0.0234,-0.0231,-0.0193,-0.0192,-0.0163,-0.0173,-0.0195,-0.0172,-0.0172,-0.0136,-0.0131,-0.0123,-0.009,-0.0087,-0.0098,-0.0097,-0.0096,-0.0095,0,0,0,0,0,0,0,-0.0269,-0.0265,-0.0233,-0.0235,-0.0232,-0.0213,-0.0209,-0.0186,-0.0167,-0.0193,-0.0191,-0.0184,-0.0135,-0.0125,-0.0121,-0.0086,-0.0098,-0.0096,-0.0094,-0.0094,-0.0026,-0.0025,0,0,0,0,0,0,-0.0276,-0.0267,-0.0235,-0.0231,-0.0248,-0.0213,-0.0208,-0.0205,-0.0167,-0.0161,-0.0184,-0.0183,-0.0129,-0.0124,-0.0119,-0.0089,-0.0096,-0.0093,-0.0092,-0.0026,-0.0026,-0.0025,0,0,0,0,0,0,-0.0277,-0.0274,-0.0237,-0.0248,-0.0241,-0.0212,-0.0209,-0.0204,-0.0195,-0.0161,-0.0155,-0.0181,-0.0129,-0.0122,-0.0096,-0.0087,-0.0092,-0.009,-0.0027,-0.0026,-0.0026,-0.0038,0,0,0,0,0,0,-0.0279,-0.0275,-0.0278,-0.0248,-0.0241,-0.0224,-0.0209,-0.0203,-0.0191,-0.0189,-0.0155,-0.0149,-0.0128,-0.0099,-0.0093,-0.0084,-0.0088,-0.0027,-0.0026,-0.0026,-0.0038,-0.0038,-0.0038,0,0,0,0,0,-0.0281,-0.0286,-0.0279,-0.0275,-0.0246,-0.0224,-0.0219,-0.0198,-0.0191,-0.0189,-0.0163,-0.015,-0.0091,-0.0097,-0.009,-0.008,-0.0027,-0.0027,-0.0026,-0.0038,-0.0038,-0.0038,0,0,0,0,0,0,-0.0306,-0.0283,-0.0275,-0.0273,-0.0252,-0.0219,-0.0217,-0.0201,-0.0179,-0.0178,-0.0145,-0.0137,-0.011,-0.0095,-0.0103,-0.0058,-0.0057,-0.0055,-0.0069,-0.0069,-0.0069,-0.0077,-0.0086,0,0,0,0,0,-0.0313,-0.0314,-0.0284,-0.0284,-0.0276,-0.0248,-0.0237,-0.0222,-0.0197,-0.0187,-0.016,-0.0131,-0.0101,-0.0086,-0.0061,-0.0038,-0.0018,-0.0027,-0.0027,-0.0027,-0.0028,0.0013,0.0017,-0.0023,-0.0023,-0.0023,0,0,-0.0324,-0.0311,-0.0312,-0.029,-0.0274,-0.0264,-0.0242,-0.023,-0.0216,-0.0184,-0.016,-0.0131,-0.0095,-0.0067,-0.0054,-0.0053,-0.0006,-0.0026,-0.0026,-0.0028,0.0014,0.0018,0.0022,-0.0022,-0.0022,-0.0022,0,0,-0.0347,-0.0334,-0.0343,-0.0325,-0.0303,-0.0281,-0.0279,-0.0247,-0.0229,-0.0203,-0.0171,-0.0137,-0.0099,-0.0065,-0.0044,-0.003,-0.0007,-0.0023,-0.0028,0.0012,0.0016,0.0019,0.0045,0.0051,-0.0023,-0.0023,-0.0023,0,-0.0363,-0.0365,-0.0341,-0.0339,-0.0327,-0.0291,-0.0291,-0.0265,-0.0226,-0.0206,-0.0201,-0.0125,-0.0097,-0.0048,-0.0042,-0.0029,-0.0009,-0.0031,0.0012,0.0016,0.002,0.0046,0.0052,-0.0024,-0.0024,-0.0024,-0.0024,0,-0.0387,-0.0386,-0.0388,-0.0374,-0.0356,-0.0351,-0.031,-0.0288,-0.0263,-0.0231,-0.0181,-0.0135,-0.009,-0.0072,-0.0052,-0.0007,-0.0002,0.0007,0.0011,0.0023,0.005,0.0057,-0.0024,-0.0024,-0.0024,-0.0024,0,0,-0.0425,-0.0411,-0.0411,-0.0412,-0.0374,-0.0365,-0.0336,-0.0298,-0.0277,-0.023,-0.0195,-0.0134,-0.0104,-0.0079,-0.0041,-0.0004,0.004,0.0009,0.0012,0.0032,0.0121,0.0107,0.0113,0.0058,0.0059,0.006,0.0127,0,-0.0452,-0.0469,-0.0443,-0.0446,-0.0449,-0.0399,-0.0376,-0.0334,-0.0289,-0.0245,-0.0179,-0.0137,-0.0107,-0.0085,-0.0039,0.0024,0.0058,0.002,0.0108,0.011,0.0095,0.0121,0.0064,0.0132,0.0134,0.0135,0.0136,0,-0.048,-0.0489,-0.0507,-0.0487,-0.0482,-0.0474,-0.0427,-0.04,-0.0322,-0.0285,-0.022,-0.0166,-0.0091,-0.0077,0.0038,0.0012,0.0061,0.0106,0.011,0.0106,0.011,0.012,0.0149,0.0148,0.0147,0.0146,0.0145,0,-0.0528,-0.0526,-0.0548,-0.0541,-0.0514,-0.0507,-0.0486,-0.042,-0.0396,-0.0311,-0.0282,-0.0179,-0.013,-0.0047,0.0053,0.0046,0.0172,0.0174,0.0207,0.0207,0.0203,0.0199,0.0245,0.0244,0.0244,0.0244,0.0244,0,-0.056,-0.0574,-0.0578,-0.0588,-0.0604,-0.0562,-0.0558,-0.0511,-0.0451,-0.0419,-0.0314,-0.0262,-0.012,-0.0026,0.0053,0.0157,0.0175,0.0212,0.0228,0.0195,0.019,0.0208,0.0203,0.0247,0.0246,0.0246,0.0245,0,-0.06,-0.0604,-0.0631,-0.0629,-0.0631,-0.0644,-0.0623,-0.0615,-0.0544,-0.0496,-0.0471,-0.0319,-0.0188,-0.0054,0.0094,0.0152,0.0251,0.0278,0.0231,0.0243,0.0255,0.0249,0.032,0.0321,0.0321,0.0321,0.0321,0,-0.0619,-0.0642,-0.0676,-0.0705,-0.0709,-0.0724,-0.0734,-0.0675,-0.0654,-0.053,-0.0507,-0.036,-0.0253,-0.0051,0.009,0.0249,0.0263,0.0308,0.0286,0.0257,0.0266,0.0259,0.0253,0.0321,0.0321,0.0321,0.0321,0,-0.0653,-0.0674,-0.0701,-0.077,-0.0801,-0.0824,-0.0823,-0.0813,-0.0727,-0.0667,-0.0531,-0.0392,-0.0236,-0.0059,0.0074,0.0184,0.0279,0.031,0.031,0.0289,0.0259,0.0266,0.0259,0.0322,0.0322,0.0322,0.0322,0,-0.0678,-0.0715,-0.0766,-0.0817,-0.0873,-0.09,-0.0893,-0.0846,-0.0808,-0.0656,-0.0614,-0.0418,-0.0286,-0.0092,0.0027,0.0143,0.0162,0.018,0.0187,0.0188,0.0131,0.0072,0.0097,0,0,0,0,0,-0.0694,-0.0741,-0.0805,-0.0863,-0.0922,-0.0945,-0.0938,-0.0912,-0.0829,-0.0749,-0.0674,-0.0524,-0.0293,-0.0174,-0.0065,0.0007,0.0164,0.0137,0.0182,0.0325,0.0324,0.0279,0,0,0,0,0,0,-0.0709,-0.0776,-0.0811,-0.089,-0.0936,-0.0987,-0.0987,-0.0931,-0.0866,-0.0763,-0.0639,-0.0523,-0.0303,-0.0366,-0.0073,-0.003,0.0007,0.0263,0.0265,0.0325,0.0325,0.0324,0.0278,0,0,0,0,0]}]]